#timestamp,LO_Frequency,Hit,StdDev 
1507233615.4,286046999.3,N
1507233635.3,286046997.7,N
1507233655.1,286046997.2,N
1507233656.0,286046997.2,N
1507233675.8,286046996.5,N
1507233695.7,286047004.0,N
1507233715.5,286047003.3,N
1507233735.3,286047001.5,N
1507233755.1,286047001.5,N
1507233775.9,286047001.8,N
1507233795.7,286046999.7,N
1507233815.5,286047002.0,N
1507233835.5,286047002.2,N
1507233855.3,286046998.4,N
1507233875.1,286047000.4,N
1507233895.8,286046998.5,N
1507233915.7,286047000.7,N
1507233935.5,286047004.5,N
1507233955.3,286047006.3,N
1507233975.2,286047007.5,N
1507233995.0,286047012.2,Y
1507233995.9,286047012.2,P
1507234015.7,286047007.1,N
1507234035.6,286047008.9,N
1507234055.4,286047007.0,N
1507234075.2,286047007.3,N
1507234095.1,286047004.1,N
1507234096.0,286047004.1,N
1507234115.8,286047005.1,N
1507234135.6,286047001.6,N
1507234155.5,286046997.2,N
1507234175.3,286046993.3,N
1507234195.1,286046993.9,N
1507234215.9,286046991.4,N
1507234235.7,286046991.6,N
1507234255.5,286046989.5,N
1507234275.4,286046985.8,N
1507234295.2,286046987.8,N
1507234315.0,286046988.3,N
1507234315.9,286046988.3,N
1507234335.7,286046985.8,N
1507234355.6,286046983.7,N
1507234375.4,286046986.5,N
1507234395.2,286046983.3,N
1507234415.1,286046980.3,N
1507234416.0,286046980.3,N
1507234435.8,286046981.8,N
1507234455.6,286046980.5,N
1507234475.5,286046982.8,N
1507234495.3,286046984.7,N
1507234515.1,286046981.6,N
1507234535.9,286046980.0,N
1507234555.7,286046981.9,N
1507234575.5,286046979.2,N
1507234595.4,286046982.0,N
1507234615.2,286046980.3,N
1507234635.0,286046978.1,N
1507234635.9,286046978.1,Y
1507234655.8,286046990.3,P
1507234675.6,286046992.5,P
1507234695.4,286046990.8,P
1507234715.3,286046991.2,Y
1507234735.1,286046998.8,P
1507234736.0,286046998.8,N
1507234755.8,286047000.3,N
1507234775.7,286047004.4,N
1507234795.5,286047005.3,N
1507234815.3,286047005.3,N
1507234835.2,286047006.4,N
1507234855.9,286047007.1,N
1507234875.7,286047007.4,N
1507234895.5,286047006.3,N
1507234915.4,286047008.3,N
1507234935.2,286047007.0,N
1507234955.0,286047008.7,N
1507234955.9,286047008.7,N
1507234975.8,286047008.8,N
1507234995.6,286047008.0,N
1507235015.4,286047010.3,N
1507235035.3,286047010.6,N
1507235055.1,286047010.0,N
1507235056.0,286047010.0,N
1507235075.8,286047010.4,N
1507235095.7,286047011.6,N
1507235115.5,286047011.9,N
1507235135.3,286047013.1,N
1507235155.2,286047015.2,Y
1507235175.9,286047006.1,P
1507235195.7,286047008.1,P
1507235215.6,286047006.8,P
1507235235.4,286047007.1,Y
1507235255.2,286047002.5,P
1507235275.1,286047001.8,N
1507235276.0,286047001.8,N
1507235295.8,286047005.9,N
1507235315.6,286047006.8,Y
1507235335.5,286047006.4,P
1507235355.3,286047005.2,P
1507235375.1,286047003.7,P
1507235395.9,286047003.6,Y
1507235415.7,286046999.5,P
1507235435.5,286046996.9,N
1507235455.4,286046999.6,N
1507235475.2,286047002.4,N
1507235495.0,286047003.7,N
1507235495.9,286047003.7,N
1507235515.8,286047004.0,N
1507235535.6,286047001.7,N
1507235555.4,286047002.0,N
1507235575.2,286046999.0,N
1507235595.1,286046998.4,N
1507235596.0,286046998.4,N
1507235615.8,286046996.9,N
1507235635.6,286046998.1,N
1507235655.5,286047004.9,N
1507235675.3,286047009.8,Y
1507235695.1,286047010.9,P
1507235715.9,286047011.2,N
1507235735.7,286047011.1,N
1507235755.5,286047012.1,N
1507235775.4,286047016.9,Y
1507235795.2,286047005.7,P
1507235815.0,286047005.1,N
1507235815.9,286047005.1,N
1507235835.8,286047001.6,N
1507235855.6,286047005.5,N
1507235875.4,286047003.0,N
1507235895.3,286047001.0,N
1507235915.1,286046996.6,N
1507235916.0,286046996.6,N
1507235935.8,286046995.1,N
1507235955.7,286046993.8,N
1507235975.5,286046996.1,N
1507235995.3,286046995.1,N
1507236015.2,286046996.8,N
1507236035.9,286046998.2,N
1507236055.7,286046991.9,N
1507236075.5,286046993.9,N
1507236095.4,286046996.8,N
1507236115.2,286046997.2,N
1507236135.0,286046996.9,N
1507236135.9,286046996.9,N
1507236155.8,286047001.0,N
1507236175.6,286046997.9,N
1507236195.4,286046998.1,N
1507236215.3,286046998.3,N
1507236235.1,286046998.5,N
1507236236.0,286046998.5,N
1507236255.8,286047003.8,N
1507236275.7,286047001.0,N
1507236295.5,286047000.9,N
1507236315.3,286046999.5,N
1507236335.2,286046996.0,N
1507236355.9,286046994.0,N
1507236375.7,286046993.3,N
1507236395.6,286046989.2,Y
1507236415.4,286046992.4,P
1507236435.2,286046990.4,P
1507236455.0,286046986.9,P
1507236456.0,286046986.9,Y
1507236475.8,286046997.2,P
1507236495.6,286046996.2,N
1507236515.5,286046993.8,N
1507236535.3,286046991.9,Y
1507236555.1,286046995.4,P
1507236575.9,286046999.6,N
1507236595.7,286046997.6,N
1507236615.5,286046994.5,N
1507236635.4,286046993.7,Y
1507236655.2,286046998.4,P
1507236675.0,286047001.6,N
1507236675.9,286047001.6,N
1507236695.8,286047003.6,N
1507236715.6,286047005.7,N
1507236735.4,286047009.1,N
1507236755.2,286047008.1,N
1507236775.1,286047008.5,N
1507236776.0,286047008.5,N
1507236795.8,286047006.9,N
1507236815.6,286047008.0,N
1507236835.5,286047008.1,N
1507236855.3,286047004.9,N
1507236875.1,286047009.1,N
1507236895.9,286047008.9,N
1507236915.7,286047005.7,N
1507236935.5,286047005.5,N
1507236955.4,286047005.5,N
1507236975.2,286047006.0,N
1507236995.0,286047005.8,N
1507236995.9,286047005.8,N
1507237015.8,286047004.1,N
1507237035.6,286047005.7,N
1507237055.4,286047005.8,N
1507237075.3,286047005.7,N
1507237095.1,286047005.9,N
1507237096.0,286047005.9,N
1507237115.8,286047004.8,N
1507237135.6,286047006.5,N
1507237155.5,286047008.3,N
1507237175.3,286047009.5,Y
1507237195.1,286047005.8,P
